Location: Chequamegon National Forest
(46.1070°N, 90.8420°W)
Time: 22:04:28
(UTC-06:00)

Amateur Radio Satellites - All Passes

Search period start: 18 December 2014 21:34
Search period end: 19 December 2014 21:34
Location: Chequamegon National Forest, 46.1070°N, 90.8420°W

Satellite Date Start Highest point End Downlink Frequencies (MHz)
Time Altitude Azimuth
AIST 2 18 Dec 21:34:24 21:37:45 21° 38° (NE) 21:41:04 435.215
ZACube-1 18 Dec 21:35:59 21:40:08 70° 258° (WSW) 21:44:24 437.345
BEESAT 3 18 Dec 21:39:29 21:43:28 40° 46° (NE) 21:47:23 437.485
GOMX 1 18 Dec 21:42:59 21:44:58 13° 271° (W) 21:46:58 467.674
AAUSAT CUBESAT 2 18 Dec 21:43:02 21:45:32 15° 270° (W) 21:48:04 437.432
POPSAT HIP 1 18 Dec 21:45:31 21:45:47 10° 88° (E) 21:46:04 437.405
UNISAT 6 18 Dec 21:45:58 21:49:18 19° 91° (E) 21:52:39 437.425
UWE-3 18 Dec 21:59:17 22:03:05 34° 264° (W) 22:06:58 435.000/436.395/437.385
RS-15 18 Dec 22:01:40 22:12:23 53° 247° (WSW) 22:23:36 29.354- 29.394
FUNcube-1 18 Dec 22:03:50 22:07:40 35° 263° (W) 22:11:36 145.935
DANDE 18 Dec 22:04:11 22:10:36 33° 271° (W) 22:17:55 436.750
SPROUT 18 Dec 22:08:13 22:10:46 16° 61° (ENE) 22:13:18 437.525
TISAT 1 18 Dec 22:11:25 22:14:15 18° 63° (ENE) 22:17:04 437.305
DUCHIFAT 1 18 Dec 22:12:06 22:15:15 20° 93° (E) 22:18:25 145.980
AISAT 18 Dec 22:12:22 22:16:39 49° 260° (W) 22:20:58 437.250
ANTELSAT 18 Dec 22:16:57 22:21:19 37° 97° (E) 22:25:41 437.575/2403.000
PCSat 18 Dec 22:17:03 22:22:11 40° 48° (NE) 22:27:17 145.827
BEESAT 2 18 Dec 22:17:20 22:21:34 78° 53° (NE) 22:25:44 435.950
SO-50 18 Dec 22:21:22 22:25:53 60° 310° (NW) 22:30:34 436.795
BUGSAT 1 18 Dec 22:21:25 22:24:22 19° 93° (E) 22:27:20 437.445
DX 1 18 Dec 22:23:16 22:25:38 14° 270° (W) 22:28:01 434.975-435.025
QB50P2 18 Dec 22:23:45 22:27:24 27° 95° (E) 22:31:02 145.880/145.840
CUBEBUG 1 18 Dec 22:25:48 22:30:11 88° 75° (ENE) 22:34:34 437.445
POLYITAN 1 18 Dec 22:31:39 22:35:32 32° 97° (E) 22:39:24 437.675
NANOSAT C BR1 18 Dec 22:35:44 22:39:39 35° 97° (E) 22:43:34 145.865
YUBILEINY 18 Dec 22:40:01 22:46:41 25° 79° (E) 22:53:18 435.215
50 SAT 18 Dec 22:47:22 22:50:39 24° 266° (W) 22:53:58 437.505
QB50P1 18 Dec 22:49:38 22:53:46 49° 100° (E) 22:57:55 145.935-145.965
TIGRISAT 18 Dec 22:53:38 22:58:20 82° 103° (ESE) 23:03:04 435.000
HUMSAT D 18 Dec 22:54:11 22:57:02 18° 269° (W) 22:59:55 437.325/437.525
ESTCUBE 1 18 Dec 23:01:57 23:06:12 39° 262° (W) 23:10:29 437.505/2401.250
VELOX 1 18 Dec 23:09:07 23:11:36 15° 270° (W) 23:14:06 145.980
CUSAT 1 18 Dec 23:09:44 23:11:13 11° 283° (WNW) 23:12:43 437.405
AIST 2 18 Dec 23:12:30 23:16:47 65° 238° (WSW) 23:20:59 435.215
M-CUBED/EXP-1 PRIME 18 Dec 23:15:51 23:18:34 15° 52° (NE) 23:21:18 437.505
POPSAT HIP 1 18 Dec 23:17:59 23:22:16 83° 285° (WNW) 23:26:32 437.405
BEESAT 3 18 Dec 23:18:01 23:21:29 26° 245° (WSW) 23:24:55 437.485
UNISAT 6 18 Dec 23:21:49 23:26:23 53° 288° (WNW) 23:30:59 437.425
ITUPSAT 1 18 Dec 23:36:29 23:40:18 24° 63° (ENE) 23:44:08 437.325
SWISSCUBE 18 Dec 23:36:41 23:40:39 26° 64° (ENE) 23:44:37 437.505
SPROUT 18 Dec 23:42:10 23:46:24 61° 259° (W) 23:50:39 437.525
TISAT 1 18 Dec 23:45:38 23:49:43 50° 260° (W) 23:53:50 437.305
O/OREOS (USA 219) 18 Dec 23:46:45 23:47:49 11° 97° (E) 23:48:53 437.305
DUCHIFAT 1 18 Dec 23:47:18 23:51:18 41° 290° (WNW) 23:55:18 145.980
ANTELSAT 18 Dec 23:54:00 23:57:58 28° 294° (WNW) 00:01:58 437.575/2403.000
BUGSAT 1 18 Dec 23:56:16 00:00:02 39° 290° (WNW) 00:03:49 437.445
BEESAT 2 18 Dec 23:57:24 23:59:13 13° 251° (WSW) 00:01:01 435.950
QB50P2 18 Dec 23:59:33 00:03:19 31° 292° (WNW) 00:07:05 145.880/145.840
PCSat 19 Dec 00:00:37 00:05:33 37° 248° (WSW) 00:10:28 145.827
BEESAT 19 Dec 00:01:30 00:05:57 40° 68° (ENE) 00:10:26 436.000
SO-50 19 Dec 00:04:38 00:07:25 15° 332° (NNW) 00:10:15 436.795
POLYITAN 1 19 Dec 00:07:48 00:11:22 26° 294° (WNW) 00:14:57 437.675
Oscar 19 19 Dec 00:08:27 00:09:18 10° 86° (E) 00:10:09 437.125/150
NANOSAT C BR1 19 Dec 00:11:57 00:15:23 24° 295° (WNW) 00:18:49 145.865
RS-15 19 Dec 00:20:36 00:21:58 10° 268° (W) 00:23:21 29.354- 29.394
AUBIESAT-1 19 Dec 00:24:05 00:28:44 49° 65° (ENE) 00:33:28 437.475
QB50P1 19 Dec 00:26:24 00:29:19 18° 297° (WNW) 00:32:14 145.935-145.965
TIGRISAT 19 Dec 00:32:03 00:34:28 14° 301° (WNW) 00:36:53 435.000
YUBILEINY 19 Dec 00:33:47 00:42:33 77° 280° (W) 00:51:19 435.215
M-CUBED/EXP-1 PRIME 19 Dec 00:48:00 00:52:51 86° 70° (ENE) 00:57:48 437.505
POPSAT HIP 1 19 Dec 00:57:04 00:57:27 10° 303° (WNW) 00:57:49 437.405
ITUPSAT 1 19 Dec 01:13:20 01:17:56 45° 261° (W) 01:22:34 437.325
SWISSCUBE 19 Dec 01:13:48 01:18:19 41° 262° (W) 01:22:52 437.505
O/OREOS (USA 219) 19 Dec 01:22:02 01:26:29 84° 294° (WNW) 01:30:59 437.305
KKS-1 19 Dec 01:36:41 01:41:05 74° 74° (ENE) 01:45:32 437.445
STARS 19 Dec 01:37:21 01:41:36 51° 71° (ENE) 01:45:52 437.465
BEESAT 19 Dec 01:39:56 01:43:55 26° 266° (W) 01:47:56 436.000
Gurwin Techsat 1B 19 Dec 01:40:29 01:44:11 19° 90° (E) 01:47:51 435.225
Oscar 19 19 Dec 01:44:15 01:49:29 78° 103° (ESE) 01:54:41 437.125/150
ITAMSAT 1 19 Dec 01:55:53 02:00:43 39° 98° (E) 02:05:31 435.822/435.867
AUBIESAT-1 19 Dec 02:00:00 02:03:52 24° 262° (W) 02:07:49 437.475
M-CUBED/EXP-1 PRIME 19 Dec 02:26:08 02:28:26 13° 267° (W) 02:30:46 437.505
MOZHAYETS 4 19 Dec 02:35:14 02:37:16 13° 58° (ENE) 02:39:17
YUBILEINY 19 Dec 02:35:16 02:41:01 19° 304° (NW) 02:46:47 435.215
AIST 1 19 Dec 02:44:10 02:47:31 22° 70° (ENE) 02:50:50
HORYU 2 19 Dec 02:55:41 02:59:50 34° 97° (E) 03:03:56 437.375
AO-7 19 Dec 02:57:59 03:04:00 21° 90° (E) 03:09:57 29.400- 29.500
O/OREOS (USA 219) 19 Dec 03:04:35 03:06:39 13° 315° (NW) 03:08:43 437.305
STARS 19 Dec 03:15:30 03:18:23 17° 269° (W) 03:21:18 437.465
KKS-1 19 Dec 03:16:30 03:18:16 12° 271° (W) 03:20:03 437.445
Gurwin Techsat 1B 19 Dec 03:19:20 03:24:36 64° 288° (WNW) 03:29:50 435.225
Oscar 19 19 Dec 03:24:56 03:28:12 17° 302° (WNW) 03:31:28 437.125/150
VERMONT LUNAR 19 Dec 03:28:29 03:30:02 12° 153° (SSE) 03:31:35 437.305
SO-50 19 Dec 03:30:47 03:32:56 13° 23° (NNE) 03:35:06 436.795
ITAMSAT 1 19 Dec 03:35:36 03:40:06 31° 296° (WNW) 03:44:35 435.822/435.867
JAS-2 19 Dec 03:39:04 03:39:55 10° 82° (E) 03:40:46 435.910
PRISM 19 Dec 03:59:38 04:01:49 14° 60° (ENE) 04:03:59 437.425
MOZHAYETS 4 19 Dec 04:09:07 04:13:47 89° 256° (WSW) 04:18:29
AIST 1 19 Dec 04:21:22 04:25:18 36° 269° (W) 04:29:12
HORYU 2 19 Dec 04:32:32 04:36:23 28° 295° (WNW) 04:40:13 437.375
GONETS M04 19 Dec 04:33:49 04:41:05 30° 81° (E) 04:48:21
AO-7 19 Dec 04:49:24 04:57:50 90° 290° (WNW) 05:06:13 29.400- 29.500
STRAND 1 19 Dec 04:55:46 04:59:53 25° 63° (ENE) 05:04:01 437.568
Gurwin Techsat 1B 19 Dec 05:02:14 05:03:33 11° 307° (NW) 05:04:53 435.225
VERMONT LUNAR 19 Dec 05:04:38 05:07:43 28° 169° (S) 05:10:48 437.305
PHONESAT 2.4 19 Dec 05:10:04 05:13:08 26° 166° (SSE) 05:16:12 2401.200-2431.200
SO-50 19 Dec 05:10:10 05:14:47 41° 45° (NE) 05:19:26 436.795
CUTE-I 19 Dec 05:11:57 05:15:06 16° 89° (E) 05:18:14 437.470
JAS-2 19 Dec 05:20:24 05:26:16 79° 103° (ESE) 05:31:34 435.910
CUBESAT XI-V 19 Dec 05:27:21 05:31:50 47° 71° (ENE) 05:36:19 437.345
PRISM 19 Dec 05:32:36 05:36:49 70° 257° (WSW) 05:41:03 437.425
MOZHAYETS 4 19 Dec 05:50:53 05:51:41 10° 274° (W) 05:52:30
Cubesat XI-IV 19 Dec 06:16:39 06:21:55 58° 101° (E) 06:27:08 437.490
GONETS M04 19 Dec 06:28:26 06:37:13 67° 283° (WNW) 06:46:03
STRAND 1 19 Dec 06:33:53 06:38:49 48° 261° (W) 06:43:46 437.568
VERMONT LUNAR 19 Dec 06:42:26 06:45:36 31° 186° (S) 06:48:46 437.305
AO-7 19 Dec 06:43:12 06:49:38 26° 311° (NW) 06:56:03 29.400- 29.500
PHONESAT 2.4 19 Dec 06:48:04 06:51:23 33° 183° (S) 06:54:41 2401.200-2431.200
CUTE-I 19 Dec 06:50:26 06:55:46 76° 287° (WNW) 07:01:03 437.470
SO-50 19 Dec 06:50:53 06:55:17 34° 244° (WSW) 06:59:41 436.795
CUBESAT XI-V 19 Dec 07:06:01 07:09:31 21° 268° (W) 07:13:02 437.345
JAS-2 19 Dec 07:06:48 07:10:34 18° 306° (NW) 07:14:07 435.910
CANX-2 19 Dec 07:55:23 07:58:00 16° 90° (E) 08:00:36 2200.000
Cubesat XI-IV 19 Dec 07:57:33 08:01:36 23° 299° (WNW) 08:05:40 437.490
GOMX 1 19 Dec 08:01:53 08:04:42 16° 91° (E) 08:07:37 467.674
HO-68 19 Dec 08:09:10 08:15:19 30° 94° (E) 08:21:24 435.675
VERMONT LUNAR 19 Dec 08:21:06 08:23:22 16° 203° (SSW) 08:25:37 437.305
COMPASS 1 19 Dec 08:21:26 08:24:33 19° 92° (E) 08:27:37 437.405
TIGRISAT 19 Dec 08:21:33 08:23:23 12° 58° (ENE) 08:25:14 435.000
SEEDS 19 Dec 08:24:27 08:27:59 24° 94° (E) 08:31:29 437.485
CUTE 1.7 + AOD 2 19 Dec 08:25:33 08:29:20 29° 95° (E) 08:33:05 437.475
PHONESAT 2.4 19 Dec 08:26:50 08:29:33 20° 200° (SSW) 08:32:17 2401.200-2431.200
GONETS M04 19 Dec 08:30:53 08:36:02 16° 307° (NW) 08:41:13
CUTE-I 19 Dec 08:32:39 08:34:57 13° 306° (NW) 08:37:15 437.470
DOVE 4 19 Dec 08:34:01 08:37:50 24° 94° (E) 08:41:48 437.250
POPSAT HIP 1 19 Dec 08:40:40 08:42:22 12° 59° (ENE) 08:44:03 437.405
MaSat-1 19 Dec 08:42:40 08:44:23 18° 112° (ESE) 08:46:03 437.345
YUBILEINY 19 Dec 08:46:03 08:50:30 15° 51° (NE) 08:54:56 435.215
UNISAT 6 19 Dec 08:47:59 08:51:22 22° 63° (ENE) 08:54:49 437.425
DELFI C3 19 Dec 08:48:25 08:50:32 14° 90° (E) 08:52:39 145.870
CUSAT 1 19 Dec 08:55:54 08:58:43 20° 83° (E) 09:02:07 437.405
Oscar 11 19 Dec 08:56:41 09:00:01 21° 93° (E) 09:03:19 145.826/435.025
BRITE-PL 19 Dec 09:03:54 09:08:30 79° 103° (ESE) 09:13:29 437.365/2234.400
UKube-1 19 Dec 09:04:27 09:07:26 18° 92° (E) 09:10:25 .
CUBEBUG 2 19 Dec 09:05:27 09:08:41 19° 91° (E) 09:11:58 437.445
DUCHIFAT 1 19 Dec 09:07:42 09:10:56 22° 65° (ENE) 09:14:11 145.980
CINEMA 3 19 Dec 09:10:54 09:15:09 33° 96° (E) 09:19:31 145.822/145.860
BUGSAT 1 19 Dec 09:14:34 09:17:37 21° 65° (ENE) 09:20:39 437.445
ANTELSAT 19 Dec 09:18:48 09:22:56 43° 70° (ENE) 09:27:11 437.575/2403.000
QB50P2 19 Dec 09:19:36 09:23:14 29° 67° (ENE) 09:26:54 145.880/145.840
AAUSAT CUBESAT 2 19 Dec 09:22:01 09:26:17 74° 102° (ESE) 09:30:30 437.432
ZACube-1 19 Dec 09:22:52 09:26:11 20° 92° (E) 09:29:32 437.345
POLYITAN 1 19 Dec 09:27:38 09:31:28 35° 69° (ENE) 09:35:18 437.675
CANX-2 19 Dec 09:30:03 09:34:18 55° 287° (WNW) 09:38:31 2200.000
NANOSAT C BR1 19 Dec 09:31:13 09:35:05 37° 69° (ENE) 09:38:59 145.865
GOMX 1 19 Dec 09:38:34 09:43:11 67° 286° (WNW) 09:48:08 467.674
DANDE 19 Dec 09:39:13 09:42:32 45° 93° (E) 09:46:58 436.750
QB50P1 19 Dec 09:45:05 09:49:10 52° 72° (ENE) 09:53:17 145.935-145.965
UWE-3 19 Dec 09:46:10 09:50:28 39° 97° (E) 09:54:49 435.000/436.395/437.385
FUNcube-1 19 Dec 09:49:30 09:53:39 35° 97° (E) 09:57:51 145.935
O/OREOS (USA 219) 19 Dec 09:50:25 09:54:33 35° 57° (ENE) 09:58:42 437.305
TIGRISAT 19 Dec 09:55:06 09:59:26 84° 257° (WSW) 10:03:56 435.000
HO-68 19 Dec 09:56:25 10:03:25 60° 293° (WNW) 10:10:23 435.675
COMPASS 1 19 Dec 09:56:25 10:00:28 43° 289° (WNW) 10:04:30 437.405
SEEDS 19 Dec 09:59:58 10:03:53 34° 291° (WNW) 10:07:45 437.485
AISAT 19 Dec 10:01:18 10:05:02 26° 95° (E) 10:08:45 437.250
CUTE 1.7 + AOD 2 19 Dec 10:01:28 10:05:14 30° 293° (WNW) 10:08:59 437.475
DX 1 19 Dec 10:06:45 10:11:07 81° 104° (ESE) 10:15:28 434.975-435.025
DOVE 4 19 Dec 10:11:19 10:15:45 44° 289° (WNW) 10:20:25 437.250
POPSAT HIP 1 19 Dec 10:13:27 10:17:40 79° 257° (WSW) 10:21:54 437.405
CUBEBUG 1 19 Dec 10:14:04 10:16:15 14° 89° (E) 10:18:25 437.445
MaSat-1 19 Dec 10:16:39 10:17:45 13° 308° (NW) 10:18:51 437.345
RS-15 19 Dec 10:20:06 10:27:27 21° 99° (E) 10:34:47 29.354- 29.394
DELFI C3 19 Dec 10:22:07 10:26:12 58° 287° (WNW) 10:30:14 145.870
UNISAT 6 19 Dec 10:23:45 10:27:54 42° 262° (W) 10:32:10 437.425
50 SAT 19 Dec 10:24:25 10:28:19 38° 98° (E) 10:32:12 437.505
Oscar 11 19 Dec 10:32:14 10:36:21 41° 290° (WNW) 10:40:27 145.826/435.025
HUMSAT D 19 Dec 10:34:33 10:38:51 62° 101° (E) 10:43:09 437.325/437.525
CUSAT 1 19 Dec 10:37:56 10:41:23 33° 293° (WNW) 10:45:53 437.405
UKube-1 19 Dec 10:39:41 10:43:52 48° 290° (WNW) 10:48:01 .
YUBILEINY 19 Dec 10:40:50 10:49:28 62° 76° (ENE) 10:58:03 435.215
CUBEBUG 2 19 Dec 10:41:11 10:45:40 53° 288° (WNW) 10:50:14 437.445
DUCHIFAT 1 19 Dec 10:42:40 10:46:35 38° 262° (W) 10:50:33 145.980
BRITE-PL 19 Dec 10:44:08 10:46:32 14° 299° (WNW) 10:49:01 437.365/2234.400
CINEMA 3 19 Dec 10:48:11 10:52:18 32° 292° (WNW) 10:56:33 145.822/145.860
BUGSAT 1 19 Dec 10:49:03 10:52:54 39° 262° (W) 10:56:44 437.445
ESTCUBE 1 19 Dec 10:52:12 10:56:21 35° 97° (E) 11:00:28 437.505/2401.250
VELOX 1 19 Dec 10:55:00 10:59:27 88° 107° (ESE) 11:03:53 145.980
QB50P2 19 Dec 10:55:28 10:59:07 28° 264° (W) 11:02:48 145.880/145.840
ANTELSAT 19 Dec 10:56:39 10:59:57 21° 268° (W) 11:03:20 437.575/2403.000
ZACube-1 19 Dec 10:58:27 11:02:47 47° 289° (WNW) 11:07:10 437.345
AAUSAT CUBESAT 2 19 Dec 10:59:24 11:01:23 13° 300° (WNW) 11:03:21 437.432
POLYITAN 1 19 Dec 11:04:06 11:07:29 23° 266° (W) 11:10:54 437.675
NANOSAT C BR1 19 Dec 11:07:49 11:11:05 22° 267° (W) 11:14:23 145.865
QB50P1 19 Dec 11:22:48 11:25:23 16° 269° (W) 11:27:59 145.935-145.965
UWE-3 19 Dec 11:23:06 11:26:50 25° 294° (WNW) 11:30:37 435.000/436.395/437.385
DANDE 19 Dec 11:24:19 11:26:42 15° 303° (WNW) 11:29:29 436.750
FUNcube-1 19 Dec 11:26:06 11:29:52 27° 294° (WNW) 11:33:42 145.935
Oscar 19 19 Dec 11:26:07 11:29:58 22° 61° (ENE) 11:33:51 437.125/150
SPROUT 19 Dec 11:27:15 11:30:24 20° 92° (E) 11:33:33 437.525
TISAT 1 19 Dec 11:28:43 11:31:57 21° 93° (E) 11:35:11 437.305
O/OREOS (USA 219) 19 Dec 11:30:01 11:33:51 28° 256° (WSW) 11:37:41 437.305
AISAT 19 Dec 11:37:42 11:41:43 35° 292° (WNW) 11:45:44 437.250
ITAMSAT 1 19 Dec 11:40:45 11:42:51 13° 54° (NE) 11:44:58 435.822/435.867
DX 1 19 Dec 11:44:52 11:46:45 13° 302° (WNW) 11:48:38 434.975-435.025
HO-68 19 Dec 11:46:10 11:49:43 15° 314° (NW) 11:53:17 435.675
CUBEBUG 1 19 Dec 11:48:46 11:53:04 64° 287° (WNW) 11:57:21 437.445
50 SAT 19 Dec 12:00:08 12:03:20 22° 295° (WNW) 12:06:32 437.505
HUMSAT D 19 Dec 12:11:37 12:14:12 16° 298° (WNW) 12:16:48 437.325/437.525
AO-7 19 Dec 12:14:09 12:16:27 11° 33° (NNE) 12:18:44 29.400- 29.500
RS-15 19 Dec 12:27:02 12:37:57 81° 122° (ESE) 12:48:58 29.354- 29.394
ESTCUBE 1 19 Dec 12:29:20 12:33:06 26° 295° (WNW) 12:36:50 437.505/2401.250
VELOX 1 19 Dec 12:33:43 12:35:22 12° 302° (WNW) 12:37:01 145.980
YUBILEINY 19 Dec 12:38:23 12:45:43 32° 278° (W) 12:53:03 435.215
SPROUT 19 Dec 13:02:37 13:06:42 43° 290° (WNW) 13:10:46 437.525
PCSat 19 Dec 13:02:50 13:06:40 20° 106° (ESE) 13:10:30 145.827
Gurwin Techsat 1B 19 Dec 13:03:42 13:08:33 38° 67° (ENE) 13:13:26 435.225
Oscar 19 19 Dec 13:03:51 13:08:54 58° 259° (W) 13:14:01 437.125/150
TISAT 1 19 Dec 13:04:00 13:07:55 39° 291° (WNW) 13:11:51 437.305
ITUPSAT 1 19 Dec 13:11:28 13:15:56 38° 98° (E) 13:20:21 437.325
SWISSCUBE 19 Dec 13:11:32 13:16:04 42° 98° (E) 13:20:34 437.505
BEESAT 3 19 Dec 13:14:34 13:18:13 32° 117° (ESE) 13:21:55 437.485
AIST 2 19 Dec 13:15:00 13:17:23 15° 110° (ESE) 13:19:48 435.215
ITAMSAT 1 19 Dec 13:16:19 13:21:29 76° 73° (ENE) 13:26:40 435.822/435.867
KKS-1 19 Dec 13:27:29 13:29:16 12° 89° (E) 13:31:02 437.445
BEESAT 19 Dec 13:36:42 13:41:29 68° 102° (ESE) 13:46:13 436.000
AUBIESAT-1 19 Dec 13:40:08 13:43:46 24° 98° (E) 13:47:07 437.475
ISS 19 Dec 13:43:26 13:46:01 21° 138° (SE) 13:48:36 145.825
BEESAT 2 19 Dec 13:52:38 13:56:44 68° 123° (ESE) 14:00:54 435.950
JAS-2 19 Dec 13:54:14 13:56:36 12° 49° (NE) 13:58:54 435.910
HORYU 2 19 Dec 13:56:38 14:00:52 43° 69° (ENE) 14:05:08 437.375
AO-7 19 Dec 13:59:25 14:06:54 39° 57° (ENE) 14:14:26 29.400- 29.500
M-CUBED/EXP-1 PRIME 19 Dec 14:04:18 14:08:40 48° 104° (ESE) 14:12:38 437.505
GONETS M04 19 Dec 14:40:13 14:45:41 18° 54° (NE) 14:51:06
RS-15 19 Dec 14:41:21 14:51:28 41° 330° (NNW) 15:01:49 29.354- 29.394
Gurwin Techsat 1B 19 Dec 14:43:51 14:48:34 32° 265° (W) 14:53:19 435.225
PCSat 19 Dec 14:44:08 14:49:31 69° 305° (NW) 14:54:58 145.827
ITUPSAT 1 19 Dec 14:49:39 14:53:40 28° 295° (WNW) 14:57:41 437.325
SWISSCUBE 19 Dec 14:49:50 14:53:43 25° 296° (WNW) 14:57:35 437.505
AIST 2 19 Dec 14:51:14 14:55:28 69° 308° (NW) 14:59:47 435.215
BEESAT 3 19 Dec 14:52:36 14:56:22 33° 316° (NW) 15:00:11 437.485
ITAMSAT 1 19 Dec 14:58:35 15:01:33 15° 271° (W) 15:04:32 435.822/435.867
STARS 19 Dec 15:01:06 15:05:33 74° 103° (ESE) 15:09:59 437.465
KKS-1 19 Dec 15:01:58 15:06:27 76° 286° (WNW) 15:10:55 437.445
AUBIESAT-1 19 Dec 15:14:43 15:18:50 37° 298° (WNW) 15:22:38 437.475
BEESAT 19 Dec 15:15:46 15:18:48 17° 301° (WNW) 15:21:50 436.000
AIST 1 19 Dec 15:18:49 15:20:19 12° 82° (E) 15:21:48
ISS 19 Dec 15:19:03 15:22:21 69° 335° (NNW) 15:25:38 145.825
BEESAT 2 19 Dec 15:32:18 15:35:25 20° 323° (NW) 15:38:34 435.950
JAS-2 19 Dec 15:33:01 15:40:18 51° 68° (ENE) 15:46:57 435.910
HORYU 2 19 Dec 15:34:19 15:37:44 21° 267° (W) 15:41:10 437.375
M-CUBED/EXP-1 PRIME 19 Dec 15:39:55 15:43:19 21° 304° (NW) 15:46:31 437.505
AO-7 19 Dec 15:51:16 15:59:24 57° 257° (WSW) 16:07:38 29.400- 29.500
MOZHAYETS 4 19 Dec 16:02:54 16:06:09 19° 91° (E) 16:09:23
Cubesat XI-IV 19 Dec 16:03:28 16:07:11 20° 59° (ENE) 16:10:54 437.490
PCSat 19 Dec 16:30:26 16:33:58 17° 327° (NNW) 16:37:31 145.827
AIST 2 19 Dec 16:32:26 16:34:54 15° 329° (NNW) 16:37:23 435.215
GONETS M04 19 Dec 16:35:34 16:44:22 72° 78° (ENE) 16:53:03
CUTE-I 19 Dec 16:35:48 16:40:32 34° 65° (ENE) 16:45:17 437.470
STARS 19 Dec 16:39:08 16:41:28 14° 301° (WNW) 16:43:48 437.465
KKS-1 19 Dec 16:41:58 16:42:18 10° 304° (NW) 16:42:37 437.445
AIST 1 19 Dec 16:52:58 16:57:20 72° 280° (W) 17:01:43
ISS 19 Dec 16:56:19 16:59:18 30° 355° (N) 17:02:16 145.825
RS-15 19 Dec 16:58:27 17:07:42 29° 4° (N) 17:17:12 29.354- 29.394
PRISM 19 Dec 17:14:50 17:17:00 14° 90° (E) 17:19:10 437.425
JAS-2 19 Dec 17:18:28 17:25:26 37° 264° (W) 17:31:54 435.910
MOZHAYETS 4 19 Dec 17:39:11 17:43:42 52° 289° (WNW) 17:48:09
Cubesat XI-IV 19 Dec 17:41:26 17:46:44 70° 257° (WSW) 17:52:05 437.490
AO-7 19 Dec 17:52:48 17:54:03 10° 278° (W) 17:55:18 29.400- 29.500
MaSat-1 19 Dec 18:10:31 18:12:53 84° 61° (ENE) 18:15:23 437.345
CUTE-I 19 Dec 18:15:40 18:20:33 36° 263° (W) 18:25:27 437.470
ISS 19 Dec 18:33:16 18:36:24 40° 15° (NNE) 18:39:31 145.825
GONETS M04 19 Dec 18:33:26 18:40:22 27° 280° (W) 18:47:15
DANDE 19 Dec 18:33:36 18:37:56 16° 58° (ENE) 18:42:38 436.750
HO-68 19 Dec 18:40:46 18:46:52 31° 58° (ENE) 18:52:58 435.675
STRAND 1 19 Dec 18:41:40 18:46:36 47° 99° (E) 18:51:29 437.568
BRITE-PL 19 Dec 18:42:26 18:44:20 13° 60° (ENE) 18:46:14 437.365/2234.400
PRISM 19 Dec 18:48:49 18:52:56 58° 288° (WNW) 18:56:59 437.425
CANX-2 19 Dec 18:51:27 18:54:11 17° 62° (ENE) 18:56:55 2200.000
CUBESAT XI-V 19 Dec 18:58:49 19:03:27 84° 104° (ESE) 19:08:03 437.345
RS-15 19 Dec 19:12:51 19:23:34 49° 37° (NE) 19:34:41 29.354- 29.394
GOMX 1 19 Dec 19:13:27 19:16:23 19° 63° (ENE) 19:19:21 467.674
COMPASS 1 19 Dec 19:15:59 19:19:02 20° 64° (ENE) 19:22:08 437.405
SEEDS 19 Dec 19:19:33 19:23:00 25° 66° (ENE) 19:26:30 437.485
CUTE 1.7 + AOD 2 19 Dec 19:21:15 19:24:56 29° 67° (ENE) 19:28:40 437.475
CUSAT 1 19 Dec 19:28:57 19:35:50 39° 70° (ENE) 19:43:35 437.405
DX 1 19 Dec 19:31:47 19:33:33 12° 58° (ENE) 19:35:18 434.975-435.025
DELFI C3 19 Dec 19:40:09 19:42:15 14° 61° (ENE) 19:44:21 145.870
DOVE 4 19 Dec 19:43:07 19:46:38 28° 67° (ENE) 19:50:14 437.250
Oscar 11 19 Dec 19:54:11 19:57:37 23° 65° (ENE) 20:01:04 145.826/435.025
BEESAT 3 19 Dec 19:55:06 19:56:27 11° 27° (NNE) 19:57:49 437.485
UKube-1 19 Dec 20:02:06 20:05:30 23° 64° (ENE) 20:08:54 .
PCSat 19 Dec 20:05:06 20:06:11 11° 21° (NNE) 20:07:15 145.827
CUBEBUG 2 19 Dec 20:07:04 20:10:07 20° 63° (ENE) 20:13:14 437.445
ISS 19 Dec 20:09:52 20:13:03 50° 214° (SW) 20:16:14 145.825
DANDE 19 Dec 20:15:13 20:22:32 65° 76° (ENE) 20:31:05 436.750
AAUSAT CUBESAT 2 19 Dec 20:15:36 20:19:47 70° 74° (ENE) 20:24:01 437.432
CINEMA 3 19 Dec 20:15:54 20:19:43 36° 69° (ENE) 20:23:39 145.822/145.860
BRITE-PL 19 Dec 20:18:13 20:22:22 67° 258° (WSW) 20:26:31 437.365/2234.400
STRAND 1 19 Dec 20:21:24 20:25:32 26° 297° (WNW) 20:29:39 437.568
VELOX 1 19 Dec 20:21:29 20:23:44 14° 59° (ENE) 20:25:59 145.980
ZACube-1 19 Dec 20:22:07 20:25:16 21° 64° (ENE) 20:28:28 437.345
CANX-2 19 Dec 20:25:30 20:29:42 56° 260° (W) 20:33:56 2200.000
HO-68 19 Dec 20:27:03 20:34:09 62° 257° (WSW) 20:41:17 435.675
BEESAT 2 19 Dec 20:33:05 20:35:56 17° 35° (NE) 20:38:46 435.950
CUBESAT XI-V 19 Dec 20:38:07 20:40:14 13° 302° (WNW) 20:42:20 437.345
UWE-3 19 Dec 20:46:20 20:50:16 41° 70° (ENE) 20:54:19 435.000/436.395/437.385
FUNcube-1 19 Dec 20:48:19 20:52:10 36° 69° (ENE) 20:56:06 145.935
GOMX 1 19 Dec 20:50:19 20:54:16 42° 262° (W) 20:58:15 467.674
COMPASS 1 19 Dec 20:50:26 20:54:28 44° 262° (W) 20:58:34 437.405
SEEDS 19 Dec 20:54:48 20:58:41 34° 264° (W) 21:02:37 437.485
CUTE 1.7 + AOD 2 19 Dec 20:57:07 21:00:50 29° 265° (W) 21:04:36 437.475
AISAT 19 Dec 21:02:01 21:05:58 33° 67° (ENE) 21:09:56 437.250
DX 1 19 Dec 21:04:48 21:09:09 84° 256° (WSW) 21:13:31 434.975-435.025
SO-50 19 Dec 21:07:32 21:11:51 45° 119° (ESE) 21:16:19 436.795
CUSAT 1 19 Dec 21:11:51 21:19:07 55° 266° (W) 21:27:18 437.405
DELFI C3 19 Dec 21:12:55 21:17:00 66° 259° (WSW) 21:21:08 145.870
CUBEBUG 1 19 Dec 21:12:59 21:15:50 17° 62° (ENE) 21:18:41 437.445
50 SAT 19 Dec 21:15:25 21:19:03 34° 69° (ENE) 21:22:45 437.505
DOVE 4 19 Dec 21:20:50 21:24:24 28° 265° (W) 21:28:03 437.250
